Location: Alafon
(8.4500°N, 4.2333°E)
Time: 13:27:33
(UTC+00:00)

X-37B - Pass Details

Date: 26 June 2021
Orbit: 383 x 392 km, 45.0° (Epoch: 01 July)

Event Time Altitude Azimuth Distance (km) Brightness Sun altitude
Exits shadow 04:24:05 14° 181° (S) 1,193 2.8 -15.0°
Drops below altitude 10° 04:24:45 10° 173° (S) 1,404 3.2 -14.9°
Sets 04:27:04 0° 158° (SSE) 2,260 4.4 -14.4°
